Home   Weather   Fürstenwalde/Spree   Past weeks

Flag for Germany Past Weather in Fürstenwalde/Spree, Brandenburg, Germany — Yesterday and Last 2 Weeks

43 °F


Feels Like: 40 °F
Forecast: 45 / 54 °F
Wind: 5 mph from Northeast

Location: Berlin-Schoenefeld

Current Time: Oct 24, 2016 at 5:39:23 AM

Latest Report: Oct 24, 2016 at 5:20 AM

Visibility: 3 mi

Pressure: 30.01 "Hg

Humidity: 93%

Dew Point: 41 °F

Location of Fürstenwalde/SpreeLocation

Past Weather in Fürstenwalde/Spree — Graph


Fürstenwalde/Spree Temperature Yesterday

Maximum temperature yesterday: 48 °F (at 1:20 PM)
Minimum temperature yesterday: 41 °F (at 11:20 PM)
Average temperature yesterday: 44 °F

High & Low Weather Summary for the Past Weeks

High54 °F (Oct 14, 3:50 PM)100% (Oct 9, 10:20 PM)30.30 "Hg (Oct 9, 10:20 PM)
Low37 °F (Oct 14, 5:50 AM)58% (Oct 14, 3:50 PM)29.86 "Hg (Oct 15, 4:50 AM)
Average46 °F90%30.08 "Hg
* Reported Oct 9 4:20 AM — Oct 24 4:20 AM, Fürstenwalde/Spree, Weather by CustomWeather, © 2016

Note: Actual official high and low records may vary slightly from our data, if they occured in-between our weather recording intervals... More about our weather records


Fürstenwalde/Spree Weather History for the Previous 24 Hours

Scroll right to see more
Time TempWeatherWind HumidityBarometerVisibility
4:20 AM
Mon, Oct 24
43 °FPassing clouds.7 mph93%29.98 "Hg4 mi
3:50 AM43 °FPassing clouds.7 mph93%30.01 "Hg4 mi
3:20 AM43 °FPassing clouds.7 mph93%30.01 "Hg4 mi
2:50 AM43 °FPassing clouds.5 mph93%30.01 "Hg4 mi
2:20 AM43 °FPassing clouds.5 mph93%30.01 "Hg4 mi
1:50 AM41 °FPassing clouds.7 mph100%30.01 "Hg6 mi
1:20 AM41 °FPassing clouds.5 mph100%30.01 "HgN/A
12:50 AM41 °FClear.5 mph93%30.01 "Hg10 mi
12:20 AM41 °FClear.6 mph93%30.01 "Hg10 mi
11:50 PM
Sun, Oct 23
41 °FClear.5 mph93%30.01 "Hg10 mi
11:20 PM41 °FClear.5 mph93%30.01 "Hg10 mi
10:50 PM43 °FClear.3 mph93%30.01 "Hg10 mi
10:20 PM43 °FClear.2 mph93%30.01 "Hg10 mi
9:50 PM45 °FClear.5 mph87%30.01 "Hg10 mi
9:20 PM45 °FClear.6 mph87%30.01 "Hg10 mi
8:50 PM46 °FClear.5 mph87%30.01 "Hg10 mi
8:20 PM46 °FClear.6 mph87%30.01 "Hg10 mi
7:50 PM46 °FClear.5 mph87%30.01 "Hg10 mi
7:20 PM46 °FClear.6 mph87%30.01 "Hg10 mi
6:50 PM46 °FClear.6 mph87%30.01 "Hg10 mi
6:20 PM46 °FClear.3 mph87%30.01 "Hg10 mi
5:50 PM46 °FSunny.5 mph87%30.01 "Hg10 mi
5:20 PM46 °FSunny.3 mph82%30.01 "Hg10 mi
4:50 PM46 °FPassing clouds.3 mph82%30.01 "HgN/A
4:20 PM46 °FPartly sunny.3 mph82%30.01 "HgN/A
3:50 PM48 °FPartly sunny.7 mph76%30.01 "HgN/A
3:20 PM46 °FPartly sunny.5 mph82%30.01 "HgN/A
2:50 PM46 °FScattered clouds.6 mph82%30.01 "HgN/A
2:20 PM48 °FScattered clouds.5 mph76%30.01 "HgN/A
1:50 PM48 °FScattered clouds.5 mph76%30.04 "HgN/A
1:20 PM48 °FScattered clouds.3 mph82%30.04 "Hg6 mi
12:50 PM45 °FPartly sunny.3 mph93%30.04 "Hg4 mi
12:20 PM43 °FFog.3 mph93%30.04 "Hg3 mi
11:50 AM43 °FFog.5 mph93%30.04 "Hg2 mi
11:20 AM45 °FPartly sunny.6 mph87%30.04 "Hg4 mi
10:50 AM46 °FPartly sunny.6 mph93%30.04 "Hg4 mi
10:20 AM45 °FFog.3 mph93%30.04 "Hg3 mi
9:50 AM43 °FFog.3 mph100%30.01 "Hg2 mi
9:20 AM43 °FFog.5 mph100%30.01 "Hg2 mi
8:50 AM43 °FFog.3 mph93%30.01 "Hg2 mi
8:20 AM43 °FFog.2 mph93%30.01 "Hg2 mi
7:50 AM43 °FFog.No wind93%30.01 "Hg2 mi
7:20 AM43 °FFog.No wind93%29.98 "Hg3 mi
6:50 AM43 °FPassing clouds.No wind93%29.98 "Hg5 mi
6:20 AM43 °FPassing clouds.No wind93%29.98 "HgN/A
5:50 AM43 °FPassing clouds.No wind93%29.98 "HgN/A
5:20 AM43 °FPartly cloudy.No wind93%29.98 "HgN/A
Weather by CustomWeather, © 2016

See weather overviewHow to use our weather pages